When you browse on this site, cookies collect data to enhance your experience and personalize the content and advertising you see.
Visit our Privacy Policy to learn more. By continuing to use the site, you agree to this use of cookies and data.
  • en France
  • Liste des pays
  • À 7 jours
  • Température de l'eau
  • Carte météo
  • Widgets météo
  • user-avatar
    Se connecter

    Météo par heure à San Miguel de Tucumán

    Ce jour, 1 Avril, Mercredi

    Heure Température Précipitation Vent Pression Humidité
    00:00 +21°C° 0 mm 0 m/s 719 mmHg 98%
    01:00 +21°C° 0 mm 0 m/s 719 mmHg 98%
    02:00 +21°C° 0 mm 0 m/s 719 mmHg 98%
    03:00 +21°C° 0.1 mm 0 m/s 718 mmHg 98%
    04:00 +21°C° 0.1 mm 0 m/s 718 mmHg 98%
    05:00 +21°C° 0.1 mm 0 m/s 718 mmHg 98%
    06:00 +21°C° 0.1 mm 0 m/s 718 mmHg 98%
    07:00 +21°C° 0.1 mm 0 m/s 719 mmHg 98%
    08:00 +21°C° 0.1 mm 0 m/s 719 mmHg 98%
    09:00 +24°C° 0 mm 1 m/s 719 mmHg 97%
    10:00 +24°C° 0 mm 1 m/s 719 mmHg 96%
    11:00 +25°C° 0 mm 1 m/s 719 mmHg 94%
    12:00 +25°C° 0 mm 1 m/s 719 mmHg 92%
    13:00 +26°C° 0 mm 1 m/s 719 mmHg 90%
    14:00 +26°C° 0 mm 2 m/s 718 mmHg 88%
    15:00 +26°C° 0.1 mm 1 m/s 718 mmHg 89%
    16:00 +26°C° 0.1 mm 1 m/s 718 mmHg 90%
    17:00 +26°C° 0.1 mm 1 m/s 718 mmHg 90%
    18:00 +26°C° 0.2 mm 1 m/s 719 mmHg 92%
    19:00 +25°C° 0.2 mm 1 m/s 720 mmHg 95%
    20:00 +25°C° 0.2 mm 1 m/s 721 mmHg 97%
    21:00 +25°C° 0.1 mm 1 m/s 721 mmHg 97%
    22:00 +24°C° 0.1 mm 1 m/s 722 mmHg 97%
    23:00 +24°C° 0.1 mm 2 m/s 722 mmHg 97%

    Demain, 2 Avril, Jeudi

    Heure Température Précipitation Vent Pression Humidité
    00:00 +24°C° 0.9 mm 2 m/s 723 mmHg 97%
    01:00 +24°C° 0.9 mm 2 m/s 723 mmHg 97%
    02:00 +24°C° 0.9 mm 2 m/s 723 mmHg 98%
    03:00 +24°C° 1.6 mm 3 m/s 723 mmHg 97%
    04:00 +22°C° 1.6 mm 3 m/s 723 mmHg 97%
    05:00 +22°C° 1.6 mm 4 m/s 723 mmHg 97%
    06:00 +22°C° 3.7 mm 4 m/s 724 mmHg 97%
    07:00 +21°C° 3.7 mm 4 m/s 725 mmHg 98%
    08:00 +21°C° 3.7 mm 3 m/s 726 mmHg 98%
    09:00 +21°C° 2.6 mm 3 m/s 726 mmHg 98%
    10:00 +20°C° 2.6 mm 2 m/s 726 mmHg 98%
    11:00 +20°C° 2.6 mm 2 m/s 727 mmHg 98%
    12:00 +20°C° 0.7 mm 2 m/s 727 mmHg 97%
    13:00 +21°C° 0.7 mm 1 m/s 726 mmHg 97%
    14:00 +21°C° 0.7 mm 1 m/s 726 mmHg 97%
    15:00 +21°C° 0.1 mm 1 m/s 725 mmHg 96%
    16:00 +20°C° 0.1 mm 1 m/s 725 mmHg 96%
    17:00 +20°C° 0.1 mm 1 m/s 725 mmHg 95%
    18:00 +20°C° 0 mm 1 m/s 725 mmHg 94%
    19:00 +20°C° 0 mm 1 m/s 725 mmHg 93%
    20:00 +20°C° 0 mm 1 m/s 725 mmHg 92%
    21:00 +20°C° 0 mm 1 m/s 725 mmHg 90%
    22:00 +18°C° 0 mm 0 m/s 725 mmHg 89%
    23:00 +18°C° 0 mm 0 m/s 725 mmHg 88%

    Après-demain, 3 Avril, Vendredi

    Heure Température Précipitation Vent Pression Humidité
    00:00 +18°C° 0 mm 0 m/s 724 mmHg 87%
    01:00 +18°C° 0 mm 0 m/s 724 mmHg 86%
    02:00 +20°C° 0 mm 1 m/s 724 mmHg 85%
    03:00 +18°C° 0 mm 0 m/s 723 mmHg 83%
    04:00 +18°C° 0 mm 0 m/s 723 mmHg 81%
    05:00 +18°C° 0 mm 0 m/s 723 mmHg 80%
    06:00 +18°C° 0 mm 0 m/s 723 mmHg 80%
    07:00 +20°C° 0 mm 1 m/s 723 mmHg 80%
    08:00 +20°C° 0 mm 1 m/s 723 mmHg 80%
    09:00 +21°C° 0 mm 1 m/s 723 mmHg 75%
    10:00 +23°C° 0 mm 1 m/s 722 mmHg 69%
    11:00 +24°C° 0 mm 2 m/s 722 mmHg 63%
    12:00 +25°C° 0 mm 2 m/s 721 mmHg 63%
    13:00 +25°C° 0 mm 2 m/s 721 mmHg 62%
    14:00 +26°C° 0 mm 2 m/s 720 mmHg 61%
    15:00 +25°C° 0 mm 2 m/s 719 mmHg 64%
    16:00 +25°C° 0 mm 2 m/s 718 mmHg 68%
    17:00 +24°C° 0 mm 2 m/s 717 mmHg 71%
    18:00 +23°C° 0 mm 1 m/s 717 mmHg 75%
    19:00 +21°C° 0 mm 1 m/s 718 mmHg 79%
    20:00 +20°C° 0 mm 1 m/s 718 mmHg 83%
    21:00 +20°C° 0 mm 1 m/s 718 mmHg 83%
    22:00 +19°C° 0 mm 1 m/s 717 mmHg 84%
    23:00 +19°C° 0 mm 1 m/s 717 mmHg 85%

    4 Avril, Samedi

    Heure Température Précipitation Vent Pression Humidité
    00:00 +19°C° 0 mm 1 m/s 717 mmHg 85%
    01:00 +18°C° 0 mm 1 m/s 717 mmHg 86%
    02:00 +18°C° 0 mm 1 m/s 716 mmHg 87%
    03:00 +18°C° 0 mm 1 m/s 716 mmHg 88%
    04:00 +16°C° 0 mm 0 m/s 716 mmHg 88%
    05:00 +15°C° 0 mm 0 m/s 715 mmHg 89%
    06:00 +16°C° 0 mm 0 m/s 716 mmHg 86%
    07:00 +17°C° 0 mm 0 m/s 716 mmHg 83%
    08:00 +18°C° 0 mm 0 m/s 717 mmHg 79%
    09:00 +22°C° 0 mm 1 m/s 717 mmHg 74%
    10:00 +24°C° 0 mm 1 m/s 717 mmHg 69%
    11:00 +26°C° 0 mm 1 m/s 717 mmHg 64%
    12:00 +26°C° 0 mm 1 m/s 716 mmHg 64%
    13:00 +27°C° 0 mm 1 m/s 716 mmHg 63%
    14:00 +27°C° 0 mm 2 m/s 716 mmHg 62%
    15:00 +27°C° 0 mm 1 m/s 715 mmHg 65%
    16:00 +27°C° 0 mm 1 m/s 715 mmHg 68%
    17:00 +26°C° 0 mm 1 m/s 715 mmHg 71%
    18:00 +25°C° 0 mm 1 m/s 715 mmHg 75%
    19:00 +23°C° 0 mm 1 m/s 715 mmHg 79%
    20:00 +22°C° 0 mm 1 m/s 716 mmHg 84%
    21:00 +21°C° 0 mm 1 m/s 716 mmHg 85%
    22:00 +21°C° 0 mm 1 m/s 716 mmHg 86%
    23:00 +21°C° 0 mm 1 m/s 716 mmHg 87%

    5 Avril, Dimanche

    Heure Température Précipitation Vent Pression Humidité
    00:00 +21°C° 0 mm 1 m/s 715 mmHg 88%
    01:00 +20°C° 0 mm 1 m/s 715 mmHg 88%
    02:00 +20°C° 0 mm 1 m/s 715 mmHg 89%
    03:00 +20°C° 0 mm 1 m/s 714 mmHg 89%
    04:00 +18°C° 0 mm 0 m/s 714 mmHg 90%
    05:00 +17°C° 0 mm 0 m/s 714 mmHg 90%
    06:00 +18°C° 0 mm 0 m/s 714 mmHg 87%
    07:00 +19°C° 0 mm 0 m/s 714 mmHg 84%
    08:00 +20°C° 0 mm 0 m/s 715 mmHg 82%
    09:00 +24°C° 0 mm 1 m/s 715 mmHg 76%
    10:00 +26°C° 0 mm 1 m/s 715 mmHg 71%
    11:00 +28°C° 0 mm 1 m/s 715 mmHg 65%
    12:00 +28°C° 0 mm 1 m/s 714 mmHg 65%
    13:00 +29°C° 0 mm 1 m/s 714 mmHg 64%
    14:00 +29°C° 0 mm 1 m/s 713 mmHg 64%
    15:00 +29°C° 0 mm 1 m/s 713 mmHg 67%
    16:00 +29°C° 0 mm 1 m/s 713 mmHg 70%
    17:00 +28°C° 0 mm 1 m/s 713 mmHg 73%
    18:00 +27°C° 0 mm 1 m/s 714 mmHg 77%
    19:00 +26°C° 0 mm 1 m/s 714 mmHg 81%
    20:00 +24°C° 0 mm 1 m/s 715 mmHg 85%
    21:00 +24°C° 0 mm 1 m/s 716 mmHg 86%
    22:00 +22°C° 0 mm 0 m/s 716 mmHg 87%
    23:00 +21°C° 0 mm 0 m/s 716 mmHg 88%

    6 Avril, Lundi

    Heure Température Précipitation Vent Pression Humidité
    00:00 +21°C° 0 mm 0 m/s 717 mmHg 88%
    01:00 +21°C° 0 mm 0 m/s 717 mmHg 88%
    02:00 +20°C° 0 mm 0 m/s 717 mmHg 88%
    03:00 +22°C° 0 mm 1 m/s 718 mmHg 89%
    04:00 +22°C° 0 mm 1 m/s 718 mmHg 89%
    05:00 +21°C° 0 mm 2 m/s 719 mmHg 90%
    06:00 +23°C° 0 mm 2 m/s 720 mmHg 88%
    07:00 +23°C° 0 mm 2 m/s 721 mmHg 86%
    08:00 +24°C° 0 mm 2 m/s 722 mmHg 84%
    09:00 +24°C° 0.1 mm 2 m/s 722 mmHg 84%
    10:00 +24°C° 0.1 mm 2 m/s 723 mmHg 83%
    11:00 +24°C° 0.1 mm 3 m/s 723 mmHg 83%
    12:00 +24°C° 0.2 mm 2 m/s 723 mmHg 83%
    13:00 +24°C° 0.2 mm 2 m/s 723 mmHg 84%
    14:00 +23°C° 0.2 mm 1 m/s 722 mmHg 84%
    15:00 +23°C° 0.1 mm 1 m/s 722 mmHg 83%
    16:00 +22°C° 0.1 mm 1 m/s 723 mmHg 83%
    17:00 +22°C° 0.1 mm 1 m/s 723 mmHg 82%
    18:00 +22°C° 0.1 mm 1 m/s 723 mmHg 82%
    19:00 +21°C° 0.1 mm 1 m/s 724 mmHg 83%
    20:00 +21°C° 0.1 mm 1 m/s 724 mmHg 83%
    21:00 +21°C° 0 mm 1 m/s 725 mmHg 83%
    22:00 +20°C° 0 mm 1 m/s 725 mmHg 83%
    23:00 +20°C° 0 mm 1 m/s 726 mmHg 83%
    Voir plus